EW3084 Weather Reports


Display with metric or nautical units.
time (UTC)temp
F
wind
direction
speed
MPH
gust
MPH
rain 1hr
in
rain 24hr
in
rain mn
in
humidity
%
barometer
mb
20260506072703 47 155 2.0 7.0 0.00 0.00 0.00 45
20260506072018 47 174 3.0 11.0 0.00 0.00 0.00 49
20260506070903 45 148 2.0 7.0 0.00 0.00 0.00 52
20260506061803 37 70 0.0 3.0 0.00 0.00 0.00 82
20260506060903 36 110 0.0 2.0 0.00 0.00 0.00 84
20260506050903 30 0 0.0 0.0 0.00 0.00 0.00 89
20260506044503 29 0 0.0 0.0 0.00 0.00 0.00 89
20260506043603 28 0 0.0 0.0 0.00 0.00 0.00 89
20260506042703 28 0 0.0 0.0 0.00 0.00 0.00 89
20260506042017 28 0 0.0 0.0 0.00 0.00 0.00 89
20260506040903 28 0 0.0 0.0 0.00 0.00 0.00 89
20260506040003 27 0 0.0 0.0 0.00 0.00 0.00 88
20260506035403 27 0 0.0 0.0 0.00 0.00 0.00 87
20260506034719 27 0 0.0 0.0 0.00 0.00 0.00 87
20260506033603 27 0 0.0 0.0 0.00 0.00 0.00 87
20260506032917 27 0 0.0 0.0 0.00 0.00 0.00 86
20260506031803 28 0 0.0 0.0 0.00 0.00 0.00 85
20260506030903 28 0 0.0 0.0 0.00 0.00 0.00 86
20260506030003 28 0 0.0 0.0 0.00 0.00 0.00 86
20260506025619 29 357 0.0 1.0 0.00 0.00 0.00 86
20260506024503 29 0 0.0 0.0 0.00 0.00 0.00 85
20260506023603 29 0 0.0 0.0 0.00 0.00 0.00 85
20260506022703 29 0 0.0 0.0 0.00 0.00 0.00 85
20260506021803 29 0 0.0 0.0 0.00 0.00 0.00 85
20260506020903 29 0 0.0 0.0 0.00 0.00 0.00 86
20260506020003 30 303 0.0 1.0 0.00 0.00 0.00 85
20260506015403 30 329 0.0 2.0 0.00 0.00 0.00 86
20260506014503 29 331 0.0 2.0 0.00 0.00 0.00 86
20260506013603 29 0 0.0 0.0 0.00 0.00 0.00 86
20260506012703 29 0 0.0 0.0 0.00 0.00 0.00 85
20260506011803 29 0 0.0 0.0 0.00 0.00 0.00 85
20260506010903 29 0 0.0 0.0 0.00 0.00 0.00 85
20260506010003 29 0 0.0 0.0 0.00 0.00 0.00 84
20260506005618 29 0 0.0 0.0 0.00 0.00 0.00 83
20260506004503 30 0 0.0 0.0 0.00 0.00 0.00 83
20260506003603 30 0 0.0 0.0 0.00 0.00 0.00 83
20260506002703 31 351 0.0 1.0 0.00 0.00 0.00 83
20260506001803 31 351 0.0 1.0 0.00 0.00 0.00 83
20260506000903 31 349 0.0 1.0 0.00 0.00 0.00 83
20260506000003 30 347 0.0 3.0 0.00 0.00 0.00 82
20260505235403 30 344 0.0 2.0 0.00 0.00 0.00 81
20260505234503 30 0 0.0 0.0 0.00 0.00 0.00 79
20260505233603 30 356 0.0 1.0 0.00 0.00 0.00 78
20260505232916 30 0 0.0 0.0 0.00 0.00 0.00 78
20260505231803 31 0 0.0 0.0 0.00 0.00 0.00 77
20260505230903 31 0 0.0 0.0 0.00 0.00 0.00 76
20260505230218 32 356 0.0 1.0 0.00 0.00 0.00 76
20260505225403 32 356 0.0 1.0 0.00 0.00 0.00 75
20260505224503 33 356 0.0 1.0 0.00 0.00 0.00 74
20260505223603 34 0 0.0 0.0 0.00 0.00 0.00 72
20260505222916 34 0 0.0 0.0 0.00 0.00 0.00 71
20260505221803 34 355 0.0 1.0 0.00 0.00 0.00 70
20260505221118 34 358 0.0 2.0 0.00 0.00 0.00 70
20260505220003 34 0 0.0 0.0 0.00 0.00 0.00 67
20260505215403 34 0 0.0 0.0 0.00 0.00 0.00 66
20260505214503 34 0 0.0 0.0 0.00 0.00 0.00 64
20260505213603 34 0 0.0 0.0 0.00 0.00 0.00 64
20260505212703 35 0 0.0 0.0 0.00 0.00 0.00 61
20260505211803 35 0 0.0 0.0 0.00 0.00 0.00 60
20260505210903 36 0 0.0 0.0 0.00 0.00 0.00 59
20260505210217 37 0 0.0 0.0 0.00 0.00 0.00 57
20260505205403 38 0 0.0 0.0 0.00 0.00 0.00 55
20260505204503 39 359 0.0 1.0 0.00 0.00 0.00 49
20260505203819 39 0 0.0 0.0 0.00 0.00 0.00 48
20260505202703 39 358 0.0 2.0 0.00 0.00 0.00 52
20260505201803 39 0 0.0 0.0 0.00 0.00 0.00 53
20260505200903 39 356 0.0 1.0 0.00 0.00 0.00 54
20260505200217 40 356 0.0 1.0 0.00 0.00 0.00 54
20260505195403 40 358 0.0 3.0 0.00 0.00 0.00 51
20260505194503 40 357 0.0 3.0 0.00 0.00 0.00 52
20260505193603 41 358 0.0 3.0 0.00 0.00 0.00 54
20260505192703 41 315 0.0 2.0 0.00 0.00 0.00 52
20260505191803 42 294 0.0 1.0 0.00 0.00 0.00 49
20260505190903 42 294 0.0 1.0 0.00 0.00 0.00 49
20260505190003 43 298 0.0 3.0 0.00 0.00 0.00 45
20260505185616 43 286 1.0 3.0 0.00 0.00 0.00 44
20260505184503 44 287 1.0 5.0 0.00 0.00 0.00 42
20260505183603 44 359 0.0 2.0 0.00 0.00 0.00 47
20260505182703 45 309 1.0 4.0 0.00 0.00 0.00 43
20260505181803 45 280 3.0 10.0 0.00 0.00 0.00 40
20260505180903 46 275 4.0 9.0 0.00 0.00 0.00 39
20260505180003 48 287 3.0 6.0 0.00 0.00 0.00 36
20260505175403 48 287 3.0 6.0 0.00 0.00 0.00 35
20260505174503 48 280 3.0 5.0 0.00 0.00 0.00 35
20260505173603 48 276 4.0 8.0 0.00 0.00 0.00 34
20260505172703 48 274 3.0 9.0 0.00 0.00 0.00 35
20260505171803 48 277 5.0 13.0 0.00 0.00 0.00 37
20260505170903 48 262 4.0 11.0 0.00 0.00 0.00 39
20260505170003 47 273 3.0 10.0 0.00 0.00 0.00 40
20260505165403 47 269 2.0 6.0 0.00 0.00 0.00 40
20260505164718 46 269 2.0 5.0 0.00 0.00 0.00 41
20260505163603 46 274 3.0 11.0 0.00 0.00 0.00 40
20260505162703 46 279 4.0 11.0 0.00 0.00 0.00 40
20260505162016 46 276 5.0 12.0 0.00 0.00 0.00 39
20260505160903 46 280 7.0 16.0 0.00 0.00 0.00 38
20260505152917 49 306 3.0 9.0 0.00 0.00 0.00 33
20260505151803 47 313 3.0 7.0 0.00 0.00 0.00 38
20260505150903 47 304 3.0 10.0 0.00 0.01 0.00 37
20260505124503 47 280 6.0 15.0 0.00 0.03 0.00 30
20260505123816 48 297 4.0 14.0 0.00 0.03 0.00 33
20260505122703 47 292 7.0 14.0 0.00 0.03 0.00 28
20260505121803 47 295 6.0 13.0 0.00 0.03 0.00 34
20260505121118 47 294 6.0 17.0 0.00 0.03 0.00 33
20260505120004 47 284 8.0 15.0 0.00 0.03 0.00 30
20260505115617 47 279 9.0 17.0 0.00 0.03 0.00 31
20260505114717 48 291 6.0 17.0 0.00 0.03 0.00 33
20260505113603 48 285 6.0 14.0 0.00 0.03 0.00 32
20260505112703 47 286 6.0 14.0 0.00 0.03 0.00 35
20260505111803 47 293 8.0 15.0 0.00 0.03 0.00 36
20260505110903 48 291 7.0 13.0 0.00 0.03 0.00 35
20260505101803 46 289 7.0 15.0 0.00 0.03 0.00 39
20260505100903 48 301 6.0 14.0 0.00 0.03 0.00 35
20260505100003 47 293 8.0 17.0 0.00 0.03 0.00 36
20260505095403 48 292 5.0 16.0 0.00 0.03 0.00 37
20260505094503 47 282 5.0 12.0 0.00 0.03 0.00 38
20260505093603 46 288 6.0 14.0 0.00 0.03 0.00 38
20260505092703 45 288 6.0 20.0 0.00 0.03 0.00 41
20260505091803 46 289 6.0 17.0 0.00 0.03 0.00 41
20260505091117 47 297 6.0 17.0 0.00 0.03 0.00 41
20260505090003 46 294 7.0 16.0 0.00 0.03 0.00 40
20260505085403 46 288 8.0 14.0 0.00 0.03 0.00 40
20260505084503 47 292 6.0 12.0 0.00 0.03 0.00 40
20260505083603 46 292 8.0 14.0 0.00 0.03 0.00 43
20260505082703 45 286 6.0 13.0 0.00 0.03 0.00 44
20260505081803 46 311 7.0 16.0 0.00 0.03 0.00 43
20260505080903 46 315 6.0 14.0 0.00 0.03 0.00 47
20260505080003 45 295 8.0 14.0 0.00 0.03 0.00 47
20260505075403 45 300 7.0 17.0 0.00 0.03 0.00 45
20260505074503 45 297 6.0 17.0 0.00 0.03 0.00 47